Location: Unspecified
(0.0000°N, 1.0000°E)
Time: 15:40:04
(UTC+02:00)

Daily predictions for brighter satellites

Satellite Brightness Start Highest point End
(mag) Time Altitude Azimuth Time Altitude Azimuth Time Altitude Azimuth
Cosmos 1953 2.8 20:05:21 10° SSE 20:09:07 38° E 20:12:50 10° NNE
Cosmos 1805 3.8 20:05:46 10° SSE 20:09:24 37° E 20:13:02 10° NNE
Cosmos 1816 Rocket 4.5 20:03:53 10° N 20:10:01 80° E 20:16:08 10° S
GMS 1 Rocket 4.2 20:11:30 10° WSW 20:15:35 87° SE 20:19:24 10° ENE
CZ-2C R/B 3.0 20:10:57 10° S 20:16:04 66° WSW 20:21:02 10° NNW
Hubble Space Telescope 1.5 20:14:05 10° SW 20:17:58 38° SSE 20:21:38 11° E
Cosmos 1378 4.3 20:15:20 10° NE 20:18:13 21° E 20:21:07 10° SE
Meteor 1-24 Rocket 4.0 20:17:45 10° NNE 20:22:46 41° E 20:27:44 10° SSE
APEX 3.8 20:20:11 10° NNW 20:25:04 69° WSW 20:28:48 10° S
Cosmos 1441 Rocket 3.3 20:22:22 10° N 20:26:06 80° W 20:29:54 10° S
Cosmos 1818 3.6 20:21:12 10° NNW 20:26:35 86° WSW 20:31:57 10° SSE
Meteor 1-28 Rocket 4.2 20:24:24 10° N 20:27:59 49° W 20:31:35 10° SSW
Meteor 2-5 Rocket 3.9 20:23:59 10° N 20:29:29 76° W 20:35:01 10° S
Cosmos 1624 Rocket 4.5 20:27:10 10° NNE 20:31:53 36° ENE 20:36:36 10° SE
Cosmos 1470 3.8 20:29:24 10° SSE 20:32:38 24° E 20:35:50 10° NE
Cosmos 1733 4.4 20:34:13 10° SE 20:37:18 22° E 20:38:43 18° ENE
Resurs 01 Rocket 3.0 20:39:10 19° ENE 20:39:10 19° ENE 20:41:59 10° NNE
Cosmos 2251 Rocket 4.4 20:35:12 10° SSE 20:39:32 26° ESE 20:42:35 16° ENE
SJ-6B 3.2 20:36:04 10° SSE 20:39:40 38° ENE 20:43:19 10° N
Meteor 2-12 Rocket 4.4 20:34:03 10° S 20:40:12 84° E 20:46:21 10° N
Cosmos 1707 4.0 20:37:55 10° NNW 20:41:36 45° W 20:45:18 10° SSW
SAR-Lupe-1 4.3 20:39:10 10° SSE 20:42:34 43° ENE 20:45:57 10° N
CENTAUR R/B 3.3 20:39:40 10° SW 20:45:03 46° WNW 20:50:39 10° N
ARIANE 5 R/B 1.4 20:43:09 10° W 20:45:10 39° S 20:45:42 31° SE
SeaSat 1 2.4 20:41:10 10° NNE 20:46:02 66° ESE 20:50:56 10° SSW
Aurora 2 Rocket 3.0 20:42:22 10° WSW 20:46:15 59° NNW 20:50:01 18° NE
OTV 4 1.9 20:44:37 10° SSW 20:46:30 21° SSE 20:46:30 21° SSE
Delta 2 Rocket 4.1 20:40:54 10° NW 20:46:52 50° NNE 20:50:15 24° E
ARIANE 5 R/B 2.5 20:50:44 10° NW 20:51:20 15° NNW 20:51:20 15° NNW
FREGAT/IRIS 2.8 20:51:45 38° ESE 20:52:27 46° E 20:55:26 10° N
Cosmos 1484 Rocket 4.1 20:51:41 10° S 20:55:14 41° W 20:58:48 10° NNW
Okean 3 Rocket 4.3 20:50:56 10° NNW 20:55:23 58° W 20:59:49 10° S
Cosmos 1634 Rocket 4.3 20:51:26 10° SSE 20:57:19 42° E 21:03:08 10° NNE
Blok-ML 4.4 20:56:27 10° N 21:02:17 45° ENE 21:03:51 35° ESE
METEOR-M 4.1 21:00:07 10° SSE 21:05:21 55° ENE 21:10:33 10° N
Abrixas rocket 2.5 21:07:39 10° NW 21:10:24 59° NNW 21:10:24 59° NNW
Sylda 4400 4.4 21:08:40 10° WSW 21:14:28 33° SSW 21:15:07 31° S
Spot 2 Rocket 3.4 21:10:49 10° SSE 21:15:49 61° ENE 21:20:47 10° N
Spot 1 4.3 21:15:46 10° SSE 21:20:52 86° E 21:25:42 10° NNW
Cosmos 2084 Rocket 3.3 21:16:29 10° SSW 21:20:39 77° S 21:20:39 77° S
ASTEX 1 3.3 21:19:24 10° N 21:24:16 85° W 21:29:10 10° S
Tiangong 2 3.0 21:22:17 10° NW 21:23:59 28° WNW 21:23:59 28° WNW
Ariane H10+ 4.3 21:44:20 10° WNW 21:44:43 15° WNW 21:44:43 15° WNW
ARIANE 5 R/B 3.5 21:33:47 10° W 21:53:15 52° NNW 21:53:19 52° N
Hubble Space Telescope 3.3 21:55:29 10° W 21:57:03 19° WNW 21:57:03 19° WNW
ATLAS CENTAUR R/B 4.2 21:57:50 10° WNW 21:58:10 12° WNW 21:58:10 12° WNW
Palapa 6 Rocket 4.4 21:54:08 10° WSW 22:02:05 74° NNW 22:02:06 74° NNW
ARIANE 44L R/B 4.4 21:58:50 10° W 22:01:31 55° W 22:01:31 55° W
Resurs 01 Rocket 4.4 22:16:46 16° WNW 22:16:46 16° WNW 22:18:13 10° WNW
ARIANE 5 R/B 3.6 21:31:39 10° W 22:22:04 69° SSW 22:22:04 69° SSW
CZ-3C R/B 3.3 22:14:34 10° WNW 22:32:46 54° NW 22:32:46 54° NW
